Location: Iesi
(43.5167°N, 13.2333°E)
Time: 03:18:50
(UTC+00:00)

Cosmos 1707 Rocket - Pass Details

Date: 08 August 2020
Orbit: 605 x 631 km, 82.5° (Epoch: 27 September)

Event Time Altitude Azimuth Distance (km) Brightness Sun altitude
Rises 19:26:23 0° 358° (N) 2,885 7.6 -11.3°
Reaches altitude 10° 19:28:43 10° 5° (N) 1,972 6.6 -11.7°
Maximum altitude 19:32:53 43° 77° (ENE) 853 4.0 -12.3°
Enters shadow 19:35:44 18° 142° (SE) 1,483 4.9 -12.7°
